S51UL-6 Weather Reports


Display with metric or nautical units.
time (UTC)temp
F
wind
direction
speed
MPH
gust
MPH
rain 1hr
in
rain 24hr
in
rain mn
in
humidity
%
barometer
mb
20260905113033 79 180 3.0 6.0 0.63 2.16 0.00 49 1020.8
20260905112532 79 135 4.0 5.0 0.59 2.00 0.00 49 1021.0
20260905112033 80 158 4.0 5.0 0.59 2.00 0.00 48 1020.9
20260905111532 81 158 3.0 5.0 0.41 1.79 0.00 48 1021.0
20260905111032 80 113 0.0 2.0 0.37 1.73 0.00 51 1020.9
20260905110032 79 68 0.0 0.0 0.35 1.63 0.00 50 1020.8
20260905105532 79 68 0.0 0.0 0.35 1.63 0.00 50 1021.0
20260905104532 80 135 0.0 0.0 0.30 1.57 0.00 49 1020.9
20260905104032 80 158 0.0 0.0 0.30 1.57 0.00 49 1020.9
20260905103536 80 45 0.0 0.0 0.26 1.53 0.00 48 1020.8
20260905103032 81 158 0.0 3.0 0.28 2.55 0.00 47 1021.0
20260905102533 82 158 1.0 3.0 0.16 2.43 0.00 46 1020.8
20260905101533 84 135 3.0 7.0 0.12 2.39 0.00 48 1020.8
20260905101035 83 135 1.0 4.0 0.04 2.30 0.00 50 1020.5
20260905100533 82 135 2.0 9.0 0.04 2.30 0.00 51 1020.6
20260905100033 81 158 5.0 9.0 0.04 2.30 0.00 52 1020.6
20260905095534 79 158 3.0 7.0 0.04 2.30 0.00 53 1020.4
20260905095033 78 23 1.0 4.0 0.02 2.29 0.00 54 1020.5
20260905094033 77 45 1.0 3.0 0.02 2.29 0.00 55 1020.8
20260905093534 77 23 0.0 0.0 0.00 2.26 0.00 55 1020.7
20260905093035 76 45 2.0 6.0 0.02 2.77 0.00 54 1020.6
20260905092533 76 45 3.0 6.0 0.02 2.77 0.00 53 1020.6
20260905092034 76 23 2.0 5.0 0.02 2.77 0.00 53 1020.8
20260905091534 76 23 3.0 5.0 0.02 2.77 0.00 53 1020.7
20260905091034 76 23 5.0 9.0 0.02 2.77 0.00 52 1020.7
20260905090535 77 23 4.0 9.0 0.02 2.77 0.00 52 1020.6
20260905090034 78 23 0.0 5.0 0.02 2.77 0.00 54 1020.5
20260905085534 78 23 2.0 4.0 0.02 2.77 0.00 54 1020.5
20260905084534 78 23 5.0 7.0 0.02 2.77 0.00 54 1020.5
20260905084034 79 23 2.0 7.0 0.08 2.77 0.00 54 1020.3
20260905083534 79 23 4.0 8.0 0.06 2.75 0.00 55 1020.2
20260905082534 79 23 5.0 12.0 0.06 3.10 0.00 56 1020.0
20260905081534 81 45 4.0 9.0 0.06 3.10 0.00 57 1019.7
20260905081034 81 0 2.0 9.0 0.06 3.10 0.00 60 1019.6
20260905080536 81 0 0.0 0.0 0.06 3.10 0.00 63 1019.3
20260905080032 80 23 0.0 2.0 0.06 3.10 0.00 63 1019.3
20260905075533 80 23 1.0 2.0 0.06 3.10 0.00 64 1019.3
20260905075033 79 135 1.0 2.0 0.06 3.10 0.00 65 1019.1
20260905074533 79 23 1.0 7.0 0.06 3.10 0.00 66 1019.1
20260905074033 78 23 4.0 9.0 0.00 3.04 0.00 68 1018.9
20260905073533 77 23 4.0 9.0 0.00 3.04 0.00 69 1018.7
20260905073035 76 45 3.0 9.0 0.00 3.10 0.00 72 1018.5
20260905072535 74 23 4.0 9.0 0.00 3.10 0.00 75 1018.5
20260905072035 74 23 1.0 6.0 0.00 3.10 0.00 76 1018.2
20260905071535 73 23 0.0 0.0 0.00 3.10 0.00 77 1017.5
20260905071035 73 23 2.0 5.0 0.00 3.10 0.00 78 1017.6
20260905070535 72 23 2.0 5.0 0.00 3.10 0.00 79 1017.6
20260905070035 72 23 0.0 0.0 0.00 3.10 0.00 81 1017.6
20260905065535 71 23 0.0 0.0 0.00 3.10 0.00 83 1017.3
20260905065035 70 23 0.0 0.0 0.00 3.10 0.00 85 1017.2
20260905064536 70 23 0.0 0.0 0.00 3.10 0.00 85 1017.1
20260905064035 69 68 0.0 0.0 0.00 3.10 0.00 86 1017.1
20260905063536 68 68 0.0 0.0 0.00 3.10 0.00 87 1017.1
20260905063035 67 68 0.0 0.0 0.00 3.22 0.00 88 1017.0
20260905062535 66 68 0.0 0.0 0.00 3.22 0.00 88 1016.9
20260905062035 65 68 0.0 0.0 0.00 3.22 0.00 89 1016.9
20260905061036 64 68 0.0 0.0 0.00 3.22 0.00 89 1016.7
20260905060535 63 68 0.0 0.0 0.00 3.22 0.00 89 1016.6
20260905060036 62 68 0.0 0.0 0.00 3.22 0.00 89 1016.7
20260905055536 61 68 0.0 0.0 0.00 3.22 0.00 89 1016.6
20260905054536 60 68 0.0 0.0 0.00 3.22 0.00 89 1016.7
20260905054036 60 68 0.0 0.0 0.00 3.22 0.00 88 1016.6
20260905053536 60 68 0.0 0.0 0.00 3.22 0.00 89 1016.6
20260905052536 60 68 0.0 0.0 0.00 3.26 0.00 89 1016.3
20260905052036 60 68 0.0 0.0 0.00 3.26 0.00 89 1016.4
20260905051036 59 68 0.0 0.0 0.00 3.26 0.00 88 1016.3
20260905050537 59 68 0.0 0.0 0.00 3.26 0.00 88 1016.1
20260905050037 58 68 0.0 0.0 0.00 3.26 0.00 88 1016.1
20260905045536 58 68 0.0 0.0 0.00 3.26 0.00 88 1016.0
20260905045039 58 68 0.0 0.0 0.00 3.26 0.00 88 1015.8
20260905044037 58 68 0.0 0.0 0.00 3.26 0.00 87 1015.6
20260905043536 57 68 0.0 0.0 0.00 3.26 0.00 87 1015.5
20260905043038 57 68 0.0 0.0 0.00 3.28 0.00 87 1015.7
20260905042537 58 68 0.0 0.0 0.00 3.28 0.00 87 1015.6
20260905042037 58 68 0.0 0.0 0.00 3.28 0.00 87 1015.5
20260905041537 58 68 0.0 0.0 0.00 3.28 0.00 87 1015.7
20260905040537 58 68 0.0 0.0 0.00 3.28 0.00 87 1015.6
20260905040123 58 68 0.0 0.0 0.00 3.28 0.00 87 1015.4
20260905040037 58 68 0.0 0.0 0.00 3.28 0.00 87 1015.4
20260905035538 58 68 0.0 0.0 0.00 3.28 0.00 87 1015.5
20260905035037 58 68 0.0 0.0 0.00 3.28 0.00 87 1015.3
20260905034537 58 68 0.0 0.0 0.00 3.28 0.00 87 1015.2
20260905034037 58 68 0.0 0.0 0.04 3.28 0.00 87 1015.1
20260905033537 58 68 0.0 0.0 0.04 3.31 0.00 87 1015.1
20260905032538 58 68 0.0 0.0 0.04 3.31 0.00 86 1015.1
20260905032037 58 68 0.0 0.0 0.04 3.31 0.00 86 1015.2
20260905031538 58 68 0.0 0.0 0.06 3.31 0.00 86 1015.0
20260905031038 59 68 0.0 0.0 0.06 3.31 0.00 86 1015.0
20260905030539 59 68 0.0 0.0 0.06 3.31 0.00 86 1014.9
20260905030037 59 68 0.0 0.0 0.08 3.31 0.00 87 1015.1
20260905025537 59 68 0.0 0.0 0.08 3.31 0.00 86 1014.9
20260905025038 59 68 0.0 0.0 0.10 3.31 0.00 86 1015.0
20260905024538 59 68 0.0 0.0 0.10 3.31 0.00 86 1014.8
20260905024038 59 68 0.0 0.0 0.06 3.26 0.00 86 1015.1
20260905023540 59 68 0.0 0.0 0.06 3.26 0.00 86 1015.0
20260905023038 59 68 0.0 0.0 0.06 3.26 0.00 86 1015.1
20260905022538 59 68 0.0 0.0 0.06 3.26 0.00 86 1015.0
20260905022040 59 68 0.0 0.0 0.10 3.26 0.00 86 1015.0
20260905021538 60 68 0.0 0.0 0.10 3.24 0.00 86 1014.9
20260905021040 60 68 0.0 0.0 0.10 3.24 0.00 86 1015.0
20260905020538 60 68 0.0 0.0 0.10 3.24 0.00 86 1014.9
20260905020038 60 68 0.0 0.0 0.08 3.22 0.00 86 1014.9
20260905015538 60 68 0.0 0.0 0.08 3.22 0.00 87 1015.1
20260905015039 60 68 0.0 0.0 0.10 3.20 0.00 86 1015.0
20260905014539 60 68 0.0 0.0 0.10 3.20 0.00 86 1015.0
20260905013539 60 68 0.0 0.0 0.12 3.20 0.00 85 1015.1
20260905013040 60 68 0.0 0.0 0.14 3.20 0.00 85 1015.0
20260905012539 60 68 0.0 0.0 0.10 3.16 0.00 85 1014.9
20260905012039 60 68 0.0 0.0 0.16 3.16 0.00 85 1015.0
20260905011539 60 68 0.0 0.0 0.14 3.14 0.00 85 1015.0
20260905011039 60 68 0.0 0.0 0.14 3.14 0.00 85 1015.0
20260905010539 60 68 0.0 0.0 0.14 3.14 0.00 85 1015.0
20260905010039 60 68 0.0 0.0 0.14 3.14 0.00 85 1015.1
20260905005636 60 68 0.0 0.0 0.14 3.14 0.00 85 1015.0
20260905005539 60 68 0.0 0.0 0.14 3.14 0.00 85 1015.0
20260905005039 60 68 0.0 0.0 0.10 3.10 0.00 85 1015.0
20260905004539 60 68 0.0 0.0 0.10 3.10 0.00 85 1015.0
20260905004039 60 68 0.0 0.0 0.10 3.08 0.00 84 1014.9
20260905003539 60 68 0.0 0.0 0.10 3.06 0.00 84 1015.0
20260905003039 60 68 0.0 0.0 0.10 3.06 0.00 84 1014.9
20260905002539 60 68 0.0 0.0 0.04 3.00 0.00 84 1015.2
20260905002041 60 68 0.0 0.0 0.08 3.00 0.00 84 1015.3
20260905001043 60 68 0.0 0.0 0.12 3.00 0.00 84 1015.2
20260905000540 60 68 0.0 0.0 0.12 3.00 0.00 84 1015.0
20260905000040 60 68 0.0 0.0 0.12 3.00 0.00 84 1015.2
20260904235540 60 68 0.0 0.0 0.12 3.00 0.00 84 1015.2
20260904234540 61 68 0.0 0.0 0.12 3.00 0.00 83 1015.2
20260904234040 61 68 0.0 0.0 0.08 2.96 0.00 84 1015.4
20260904233542 61 68 0.0 0.0 0.08 2.96 0.00 83 1015.3
20260904233130 61 68 0.0 0.0 0.08 2.96 0.00 83 1015.3
20260904233041 61 68 0.0 0.0 0.08 2.96 0.00 83 1015.3
20260904232540 61 68 0.0 0.0 0.04 2.92 0.00 83 1015.4
20260904231540 61 68 0.0 0.0 0.00 2.88 0.00 83 1015.4
20260904231040 61 68 0.0 0.0 0.00 2.88 0.00 82 1015.3
20260904230540 61 68 0.0 0.0 0.00 2.88 0.00 83 1015.3
20260904230040 61 68 0.0 0.0 0.00 2.88 0.00 82 1015.3
20260904225540 61 68 0.0 0.0 0.00 2.88 0.00 81 1015.4
20260904225040 61 90 0.0 0.0 0.00 2.88 0.00 81 1015.3
20260904224541 61 90 0.0 0.0 0.00 2.88 0.00 81 1015.2
20260904224041 61 90 0.0 0.0 0.00 2.88 0.00 81 1015.3
20260904223541 61 90 0.0 0.0 0.00 2.88 0.00 81 1015.3
20260904223040 62 90 0.0 0.0 0.00 2.88 0.00 80 1015.3
20260904222541 62 90 0.0 0.0 0.00 2.88 0.00 80 1015.3
20260904222041 62 90 0.0 0.0 0.00 2.88 0.00 80 1015.4
20260904221541 62 90 0.0 0.0 0.00 2.88 0.00 80 1015.3
20260904220541 63 90 0.0 0.0 0.00 2.88 0.00 80 1015.2
20260904220041 63 90 0.0 0.0 0.00 2.88 0.00 80 1015.3
20260904215541 63 90 0.0 0.0 0.00 2.88 0.00 80 1015.1
20260904215041 63 90 0.0 0.0 0.00 2.88 0.00 79 1015.2
20260904214541 63 90 0.0 0.0 0.00 2.88 0.00 79 1015.2
20260904214041 63 90 0.0 0.0 0.00 2.88 0.00 79 1015.0
20260904213541 64 90 0.0 0.0 0.00 2.88 0.00 78 1015.2
20260904213043 64 90 0.0 0.0 0.00 2.88 0.00 78 1015.3
20260904212542 64 90 0.0 0.0 0.00 2.88 0.00 78 1015.1
20260904212042 64 90 0.0 0.0 0.00 2.88 0.00 77 1015.2
20260904211541 64 90 0.0 0.0 0.00 2.88 0.00 77 1015.2
20260904210542 65 90 0.0 0.0 0.00 2.88 0.00 77 1015.0
20260904210042 65 90 0.0 0.0 0.00 2.88 0.00 77 1014.9
20260904205042 65 90 0.0 0.0 0.00 2.88 0.00 77 1014.9
20260904203543 65 113 0.0 0.0 0.00 2.88 0.00 75 1015.1
20260904203042 66 113 0.0 0.0 0.00 2.88 0.00 75 1015.2
20260904202542 66 135 0.0 0.0 0.00 2.88 0.00 75 1015.3
20260904202042 66 135 0.0 0.0 0.00 2.88 0.00 74 1015.2
20260904201542 66 135 0.0 0.0 0.00 2.88 0.00 74 1015.1
20260904201042 67 135 0.0 0.0 0.00 2.88 0.00 73 1015.2
20260904200542 67 135 0.0 0.0 0.00 2.88 0.00 73 1015.2
20260904200042 67 135 0.0 0.0 0.00 2.88 0.00 72 1015.3
20260904195543 67 135 0.0 0.0 0.00 2.88 0.00 72 1015.4
20260904195043 67 135 0.0 0.0 0.00 2.88 0.00 71 1015.4
20260904194543 68 135 0.0 0.0 0.00 2.88 0.00 71 1015.5
20260904194042 68 135 0.0 0.0 0.00 2.88 0.00 71 1015.6
20260904193542 68 135 0.0 0.0 0.00 2.88 0.00 70 1015.6
20260904193229 68 135 0.0 0.0 0.00 2.88 0.00 70 1015.6
20260904193043 68 135 0.0 0.0 0.00 2.88 0.00 70 1015.6
20260904192542 68 135 0.0 0.0 0.00 2.88 0.00 69 1015.7
20260904192043 68 135 0.0 0.0 0.00 2.88 0.00 69 1015.8
20260904191543 69 135 0.0 0.0 0.00 2.88 0.00 68 1015.8
20260904191043 69 135 0.0 0.0 0.00 2.88 0.00 67 1015.8
20260904190543 69 135 0.0 0.0 0.00 2.88 0.00 67 1016.1
20260904190044 69 135 0.0 0.0 0.00 2.88 0.00 66 1015.9
20260904185544 70 135 0.0 0.0 0.00 2.88 0.00 66 1015.9
20260904185043 70 135 0.0 0.0 0.00 2.88 0.00 66 1016.1
20260904184043 71 135 0.0 0.0 0.00 2.88 0.00 64 1015.9
20260904183544 71 135 0.0 0.0 0.00 2.88 0.00 63 1016.2
20260904183043 72 135 0.0 0.0 0.00 2.88 0.00 62 1016.1
20260904182543 72 135 0.0 0.0 0.00 2.88 0.00 62 1016.2
20260904182044 72 135 0.0 0.0 0.00 2.88 0.00 61 1016.1
20260904181043 73 135 0.0 0.0 0.00 2.88 0.00 59 1016.1
20260904180544 74 135 0.0 0.0 0.00 2.88 0.00 58 1016.1
20260904180043 74 135 0.0 0.0 0.00 2.88 0.00 57 1016.1
20260904175544 75 135 0.0 0.0 0.00 2.88 0.00 56 1016.1
20260904175044 76 135 0.0 0.0 0.00 2.88 0.00 55 1016.1
20260904174544 76 135 0.0 0.0 0.00 2.88 0.00 55 1016.1
20260904174044 77 135 0.0 0.0 0.00 2.88 0.00 54 1016.1
20260904173544 77 135 0.0 0.0 0.00 2.88 0.00 53 1016.2
20260904173044 78 135 0.0 0.0 0.00 2.88 0.00 52 1016.1
20260904172544 79 135 0.0 0.0 0.00 2.88 0.00 51 1016.2
20260904172044 79 135 0.0 0.0 0.00 2.88 0.00 51 1016.3
20260904171544 80 135 0.0 0.0 0.00 2.88 0.00 49 1016.2
20260904171044 80 135 0.0 0.0 0.00 2.88 0.00 48 1016.3
20260904170545 81 135 0.0 0.0 0.00 2.88 0.00 47 1016.3
20260904170044 82 135 0.0 0.0 0.00 2.88 0.00 47 1016.3
20260904165544 83 135 0.0 0.0 0.00 2.88 0.00 45 1016.4
20260904165044 84 135 0.0 0.0 0.00 2.88 0.00 44 1016.4
20260904164544 85 135 0.0 0.0 0.00 2.88 0.00 42 1016.6
20260904164044 85 135 1.0 5.0 0.00 2.88 0.00 42 1016.4
20260904163544 85 225 1.0 5.0 0.00 2.88 0.00 42 1016.6
20260904163045 86 225 0.0 0.0 0.00 2.88 0.00 41 1016.5
20260904162545 86 225 0.0 0.0 0.00 2.88 0.00 40 1016.6
20260904162045 87 225 0.0 4.0 0.00 2.88 0.00 39 1016.6
20260904161546 87 203 3.0 6.0 0.00 2.88 0.00 39 1016.6
20260904161045 87 158 3.0 6.0 0.00 2.88 0.00 39 1016.7
20260904160545 87 158 3.0 6.0 0.00 2.88 0.00 39 1016.6
20260904160046 87 158 4.0 6.0 0.00 2.88 0.00 38 1016.7
20260904155545 87 180 2.0 5.0 0.00 2.88 0.00 38 1016.8
20260904155045 88 225 0.0 5.0 0.00 2.88 0.00 38 1016.8
20260904154545 88 203 0.0 0.0 0.00 2.88 0.00 38 1016.7
20260904154046 88 158 2.0 5.0 0.00 2.88 0.00 38 1017.0
20260904153546 88 180 3.0 5.0 0.00 2.88 0.00 37 1017.0
20260904153046 89 180 3.0 6.0 0.00 2.88 0.00 37 1016.9
20260904152045 89 225 4.0 9.0 0.00 2.88 0.00 37 1017.1
20260904151545 89 180 7.0 11.0 0.00 2.88 0.00 36 1017.1
20260904151046 90 158 7.0 11.0 0.00 2.88 0.00 36 1017.1
20260904150545 90 180 3.0 6.0 0.04 2.88 0.00 36 1017.0
20260904150046 91 158 4.0 6.0 0.04 2.88 0.00 35 1017.1
20260904145546 91 203 2.0 4.0 0.04 2.88 0.00 35 1017.1
20260904145046 92 203 3.0 8.0 0.04 2.88 0.00 35 1017.2
20260904144546 92 248 5.0 8.0 0.04 2.88 0.00 35 1017.3
20260904144047 92 135 3.0 10.0 0.10 2.88 0.00 35 1017.4
20260904143546 93 158 6.0 10.0 0.10 2.88 0.00 35 1017.4
20260904142546 93 158 5.0 11.0 0.10 2.88 0.00 35 1017.7
20260904142047 93 158 9.0 15.0 0.10 2.88 0.00 35 1017.7
20260904141548 93 180 9.0 15.0 0.12 2.88 0.00 35 1017.6
20260904141046 94 135 7.0 11.0 0.08 2.84 0.00 35 1017.9
20260904140546 94 158 6.0 9.0 0.08 2.84 0.00 36 1017.8
20260904140046 94 158 9.0 13.0 0.08 2.84 0.00 35 1017.8
20260904135546 94 158 9.0 15.0 0.08 2.84 0.00 37 1017.8
20260904135046 94 158 10.0 15.0 0.08 2.84 0.00 36 1017.9
20260904134546 94 158 7.0 10.0 0.06 2.81 0.00 37 1018.0
20260904134047 94 158 5.0 7.0 0.02 2.77 0.00 37 1017.9
20260904133546 93 135 4.0 7.0 0.02 2.77 0.00 37 1018.0
20260904133046 93 158 6.0 7.0 0.04 2.77 0.00 37 1018.1
20260904132548 93 158 7.0 12.0 0.04 2.77 0.00 38 1018.1
20260904132048 93 113 9.0 12.0 0.06 2.77 0.00 38 1018.3
20260904131547 92 113 9.0 12.0 0.04 2.75 0.00 38 1018.3
20260904131047 92 158 9.0 11.0 0.04 2.75 0.00 36 1018.3
20260904130547 92 113 6.0 11.0 0.04 2.75 0.00 38 1018.4
20260904130047 92 158 6.0 12.0 0.06 2.75 0.00 38 1018.4
20260904125547 92 180 10.0 12.0 0.10 2.75 0.00 36 1018.5
20260904124547 92 158 10.0 14.0 0.28 2.75 0.00 38 1018.7
20260904124047 93 180 9.0 12.0 0.55 2.75 0.00 38 1018.9
20260904123548 93 135 8.0 9.0 0.59 2.73 0.00 38 1018.9
20260904123047 93 135 6.0 8.0 0.59 2.73 0.00 38 1018.8
20260904122547 93 135 7.0 10.0 0.57 2.71 0.00 38 1018.8
20260904122047 93 135 8.0 12.0 0.89 2.71 0.00 36 1019.1
20260904121547 94 180 8.0 12.0 0.98 2.71 0.00 38 1019.1
20260904121047 94 158 9.0 13.0 0.98 2.71 0.00 37 1019.1
20260904120547 94 158 10.0 13.0 1.00 2.71 0.00 38 1019.1
20260904120047 95 135 7.0 12.0 0.96 2.65 0.00 36 1019.2
20260904115548 95 135 6.0 10.0 1.12 2.65 0.00 38 1019.4
20260904114548 95 158 4.0 6.0 0.94 2.22 0.00 38 1019.6
20260904113548 95 158 7.0 8.0 1.02 2.14 0.00 37 1019.7